This demonstration page uses our WeatherBlox Daily Observations layout. Learn more.

Left ArrowRight Arrow

34.02893, -84.19858

Hourly Observations for April 7, 2022

Temp ( °F °C ) Dew Point ( °F °C ) Humidity (%) Winds ( mph kmh ) Pressure ( in mb ) Visibility ( mi km ) Precip ( " mm )
12:00 am 00:00 Cloudy with Thunderstorms 65 18.3 65 18.3 100 100 Calm 29.65 1004 6 10 0.01 0.25
12:11 am 00:11 Cloudy with Thunderstorms 65 18.3 63 17.2 93 93 WNW 6 9 29.66 1004 8 13 0.01 0.25
12:18 am 00:18 Cloudy with Nearby Thunderstorms 65 18.3 64 17.8 97 97 WSW 6 9 29.67 1005 10 16 0.01 0.25
12:26 am 00:26 Cloudy with Light Rain 64 17.8 64 17.8 100 100 SSE 6 9 29.67 1005 6 10 0.02 0.51
12:34 am 00:34 Cloudy with Light Rain 64 17.8 64 17.8 100 100 SSE 5 7 29.66 1004 4 6 0.05 1.27
12:42 am 00:42 Cloudy with Nearby Thunderstorms 64 17.8 64 17.8 100 100 SSW 5 7 29.66 1004 8 13 0.05 1.27
12:53 am 00:53 Cloudy with Thunderstorms 64 17.8 64 17.8 100 100 Calm 29.66 1005 7 11 0.05 1.27
1:20 am 01:20 Cloudy with Light Rain 64 17.8 64 17.8 100 100 WSW 5 7 29.67 1005 6 10 0.00 0.00
1:32 am 01:32 Cloudy with Light Rain 64 17.8 64 17.8 100 100 WNW 6 9 29.67 1005 5 8 0.01 0.25
1:53 am 01:53 Cloudy 63 17.2 61 16.1 93 93 NW 10 17 29.67 1005 9 14 0.01 0.25
2:09 am 02:09 Cloudy 62 16.7 59 15 90 90 NW 8 13 29.68 1005 10 16 0.00 0.00
2:48 am 02:48 Cloudy 59 15 57 14 94 94 WNW 10 17 29.69 1005 10 16 0.00 0.00
2:53 am 02:53 Cloudy 59 15 57 13.9 93 93 WNW 14 22 29.67 1005 10 16 0.00 0.00
3:11 am 03:11 Cloudy 57 13.9 53 11.7 87 87 NW 17 28 29.69 1005 10 16 0.00 0.00
3:53 am 03:53 Cloudy 56 13.3 52 11.1 87 87 NW 16 26 29.67 1005 10 16 0.00 0.00
4:53 am 04:53 Cloudy 54 12.2 51 10.6 90 90 WNW 8 13 29.68 1005 10 16 0.00 0.00
5:53 am 05:53 Cloudy 54 12.2 49 9.4 83 83 WNW 8 13 29.69 1005 10 16 0.00 0.00
6:53 am 06:53 Cloudy 53 11.7 47 8.3 80 80 WNW 12 19 29.71 1006 10 16 0.00 0.00
7:53 am 07:53 Cloudy 53 11.7 45 7.2 74 74 WNW 9 15 29.73 1007 10 16 0.00 0.00
8:53 am 08:53 Mostly Sunny 55 12.8 45 7.2 69 69 WNW 10 17 29.75 1007 10 16 0.00 0.00
9:53 am 09:53 Sunny 58 14.4 44 6.7 60 60 WNW 12 19 29.76 1008 10 16 0.00 0.00
10:53 am 10:53 Sunny 61 16.1 41 5 48 48 WNW 16 26 29.76 1008 10 16 0.00 0.00
11:53 am 11:53 Mostly Sunny 62 16.7 41 5 46 46 W 16 26 29.76 1008 10 16 0.00 0.00
12:53 pm 12:53 Mostly Sunny 64 17.8 35 1.7 34 34 W 17 28 29.75 1007 10 16 0.00 0.00
1:53 pm 13:53 Sunny 66 18.9 33 0.6 29 29 W 18 30 29.73 1007 10 16 0.00 0.00
2:53 pm 14:53 Sunny 65 18.3 33 0.6 31 31 NW 16 26 29.72 1007 10 16 0.00 0.00
3:53 pm 15:53 Partly Cloudy 67 19.4 32 0 27 27 W 14 22 29.70 1006 10 16 0.00 0.00
4:53 pm 16:53 Mostly Sunny 66 18.9 30 -1.1 26 26 WNW 14 22 29.70 1006 10 16 0.00 0.00
5:53 pm 17:53 Mostly Cloudy 66 18.9 31 -0.6 27 27 WNW 10 17 29.70 1006 10 16 0.00 0.00
6:53 pm 18:53 Mostly Sunny 65 18.3 30 -1.1 27 27 W 14 22 29.72 1006 10 16 0.00 0.00
7:53 pm 19:53 Mostly Sunny 61 16.1 33 0.6 35 35 NW 13 20 29.74 1007 10 16 0.00 0.00
8:53 pm 20:53 Clear 59 15 33 0.6 38 38 W 14 22 29.78 1008 10 16 0.00 0.00
9:53 pm 21:53 Clear 58 14.4 34 1.1 41 41 WNW 12 19 29.81 1009 10 16 0.00 0.00
10:53 pm 22:53 Clear 55 12.8 29 -1.7 37 37 WNW 12 19 29.83 1010 10 16 0.00 0.00
11:53 pm 23:53 Clear 52 11.1 29 -1.7 41 41 W 6 9 29.83 1010 10 16 0.00 0.00

Powered by AerisWeather